Location: Moscow
(55.7500°N, 37.5830°E)
Time: 17:13:37
(UTC+03:00)

Tiros 1 despin weight - Pass Details

Date: 08 December 2021
Orbit: 592 x 641 km, 48.2° (Epoch: 23 January)

Event Time Altitude Azimuth Distance (km) Brightness Sun altitude
Rises 17:51:21 0° 267° (W) 2,827 ? -14.6°
Reaches altitude 10° 17:55:55 10° 223° (SW) 1,920 ? -15.2°
Maximum altitude 17:56:25 10° 217° (SW) 1,909 ? -15.2°
Drops below altitude 10° 17:56:55 10° 210° (SSW) 1,919 ? -15.3°
Sets 18:01:28 0° 167° (SSE) 2,821 ? -15.9°
